GEFSSGP_con_maxscp_174.txt.gz
SCP
0 0 0 0 0 0 0 0 0 0 0 0 0 0 0 0 1 1 1 1 1 2 2 2 3 3 2 2 2 2 2 3 3 3 4 4 4 3 2 2 2 2 1 1 0 0 1 1 1
0 0 0 0 0 0 0 0 0 0 0 0 0 0 0 1 1 1 1 1 1 2 2 3 3 3 3 2 2 2 2 3 3 3 3 4 4 3 2 2 2 2 2 1 1 0 1 1 1
0 0 0 0 0 0 0 0 0 0 0 0 0 0 1 1 1 1 1 1 2 2 3 3 3 3 3 3 3 3 3 3 3 3 3 3 3 3 3 3 2 2 2 1 1 1 1 1 1
0 0 0 0 0 0 0 0 1 1 1 0 1 1 1 1 1 1 1 1 2 2 2 3 3 3 3 3 3 3 3 3 3 3 3 3 3 3 3 3 3 2 2 1 1 1 1 1 1
0 0 0 0 0 0 0 0 1 1 1 1 1 1 1 1 1 2 2 2 2 2 2 2 3 3 3 3 3 3 3 3 3 3 3 3 3 3 3 3 3 3 2 2 1 1 1 1 1
0 0 0 0 0 1 1 1 1 0 1 1 1 1 2 2 2 2 2 2 2 2 2 2 2 3 3 4 4 3 3 3 3 3 3 3 4 4 4 3 3 3 3 2 2 1 1 1 1
0 0 0 0 0 1 1 1 1 1 1 1 1 1 2 2 2 2 2 2 2 2 2 2 2 2 3 3 4 4 4 3 3 3 3 4 4 4 4 4 4 3 3 2 2 2 2 1 1
0 0 0 0 0 1 1 1 1 1 1 1 1 1 2 2 2 2 2 2 2 2 2 2 1 2 2 2 3 4 4 4 3 3 3 3 4 4 4 4 4 4 3 3 3 2 2 2 1
0 0 0 0 0 1 1 2 2 1 1 1 1 2 2 3 3 3 3 3 3 2 2 2 2 2 1 2 2 3 4 4 3 3 3 3 3 3 3 3 4 4 4 3 3 3 2 2 2
0 0 0 0 0 1 1 1 1 1 1 2 2 2 3 3 3 3 3 3 3 3 2 2 2 2 2 2 2 3 3 3 3 3 3 3 3 3 2 3 3 3 4 3 3 3 2 2 2
0 0 0 0 1 1 1 1 1 1 1 2 2 3 4 4 3 3 3 3 3 3 3 2 2 2 2 2 2 3 3 3 2 3 3 3 3 3 2 2 3 3 3 3 3 2 2 1 1
0 1 1 1 1 1 1 1 2 2 2 2 2 3 3 3 3 3 3 3 3 3 2 2 2 2 3 3 3 3 3 3 3 2 2 3 3 3 3 3 3 3 3 3 3 2 2 1 1
1 1 1 1 1 1 1 2 2 2 2 2 2 3 3 3 3 3 3 4 4 3 3 2 2 3 3 4 4 4 4 4 4 3 3 3 3 3 3 3 3 3 3 3 3 2 2 2 2
1 1 1 1 1 1 1 2 2 2 2 2 3 3 4 4 4 4 4 4 4 4 3 3 3 3 4 5 5 5 5 5 5 4 4 3 3 3 3 3 3 3 2 2 2 2 2 2 2
1 1 1 1 1 1 1 1 2 2 2 2 3 3 4 4 4 4 4 4 4 4 4 4 3 3 4 4 5 5 6 6 6 6 5 4 3 3 3 3 3 2 2 2 2 2 2 2 2
1 1 1 1 1 1 1 1 2 2 2 2 3 3 3 3 3 3 4 4 4 5 6 5 4 4 3 4 4 5 6 6 6 6 5 4 4 3 3 3 3 2 2 2 2 2 2 2 2
0 0 1 1 1 1 1 1 2 2 2 2 2 3 3 2 2 3 4 4 5 6 7 7 6 5 4 3 3 4 5 5 4 5 5 4 3 3 3 3 3 3 2 2 2 3 2 2 2
0 0 0 1 1 1 1 1 2 2 2 2 2 2 2 2 2 3 4 4 5 7 9 8 6 5 4 4 3 3 3 3 3 3 3 2 2 2 2 2 2 3 3 3 3 3 3 2 2
0 0 0 1 1 0 1 1 2 2 2 2 2 2 2 2 2 3 4 4 5 7 8 7 5 5 5 4 4 4 3 3 2 2 2 1 1 1 1 2 2 2 3 3 3 3 3 3 2
0 0 0 1 1 1 1 2 2 2 1 1 2 2 2 2 3 3 4 5 5 6 6 5 4 4 4 4 4 5 4 3 3 2 1 1 1 1 1 1 2 2 2 2 2 3 3 3 3
0 0 0 0 1 1 1 1 1 1 1 1 2 2 2 3 3 4 4 5 5 5 5 4 4 4 4 4 5 5 5 4 3 2 2 1 1 1 1 1 1 2 2 2 2 2 2 3 3
0 0 0 0 0 0 1 1 1 1 1 1 2 3 3 3 3 4 4 5 5 5 5 5 4 4 4 4 4 4 4 3 2 2 2 1 1 1 1 1 2 2 2 2 2 2 2 3 3
0 0 0 0 0 0 0 0 1 1 1 2 2 4 4 3 3 4 4 5 5 5 5 5 5 4 4 4 4 4 3 2 2 2 2 1 1 1 1 2 2 2 3 3 2 2 3 3 2
0 0 0 0 0 0 0 0 1 1 1 2 3 5 5 3 3 3 4 4 4 4 4 4 4 4 4 4 4 4 3 3 2 2 2 2 2 2 2 2 2 3 3 3 3 2 2 2 2
0 0 0 0 0 0 0 0 1 1 1 2 3 4 4 3 3 3 3 4 4 4 4 3 4 4 4 4 3 3 4 3 2 2 2 2 2 2 3 3 3 3 3 3 2 2 1 1 1
0 0 0 0 0 0 0 1 1 1 1 2 3 3 3 2 2 2 3 4 4 4 4 3 3 4 4 3 3 3 3 4 3 2 2 2 2 2 3 3 3 3 2 2 1 1 1 1 1
0 0 0 0 0 0 0 1 1 1 1 2 2 3 3 2 2 2 3 4 4 5 4 3 3 3 3 3 2 2 3 4 3 2 2 2 2 2 2 2 2 2 1 1 1 1 1 1 1
0 0 0 0 0 0 0 1 1 1 1 2 2 2 3 3 2 2 3 4 5 5 5 4 3 2 2 2 2 2 2 3 3 2 1 1 1 1 1 1 1 1 1 1 1 1 1 1 1
0 0 0 0 0 0 0 1 1 1 2 2 2 2 2 2 3 3 3 3 4 5 5 4 4 3 2 1 1 1 1 1 1 1 1 1 1 1 1 1 1 1 1 1 0 1 1 1 1
0 0 0 0 0 0 0 1 1 1 2 2 2 1 2 2 3 3 3 3 3 4 4 4 4 2 1 1 1 1 1 1 1 1 1 1 1 1 1 1 1 1 1 0 0 0 0 1 1

GEFSSGP_con_maxscp_180.txt.gz
SCP
0 0 0 0 0 0 0 0 1 1 1 1 1 1 1 1 1 1 1 1 2 3 3 2 3 3 3 2 2 1 1 1 1 1 1 1 2 1 1 1 1 1 1 1 1 1 0 0 0
0 0 0 0 0 0 0 1 1 1 1 1 1 1 1 1 1 1 2 2 3 4 3 3 3 3 3 3 2 2 1 1 1 1 1 1 2 2 1 1 1 1 1 1 1 1 1 1 1
0 0 0 0 0 0 0 1 1 1 1 1 1 1 1 1 1 2 3 4 5 5 4 4 4 4 5 6 4 2 2 1 1 1 1 2 2 2 2 1 1 1 1 1 1 1 1 1 1
0 0 0 0 0 0 1 1 1 1 1 1 1 2 2 2 2 3 5 7 7 6 5 4 4 5 6 6 5 2 2 2 2 1 2 2 2 2 2 1 1 1 1 1 1 1 1 1 1
0 0 0 0 0 0 1 1 1 1 1 1 2 2 3 4 4 4 6 7 6 5 4 4 4 3 4 4 4 2 2 2 2 2 2 2 2 2 2 1 1 1 1 1 1 1 1 1 1
0 0 0 0 0 1 1 1 1 1 1 2 2 3 4 4 4 4 4 4 4 4 4 4 3 2 2 2 3 2 2 2 2 2 2 2 2 2 2 1 1 1 1 1 1 1 1 1 1
0 0 0 0 0 1 1 1 1 1 1 2 2 3 4 5 4 4 3 3 2 3 3 3 3 2 2 2 3 3 3 3 3 3 3 2 2 2 2 1 1 1 1 1 1 1 1 1 1
0 0 0 0 1 1 1 1 1 2 2 2 3 3 4 5 4 3 3 3 3 3 3 2 2 2 2 2 3 3 3 4 4 4 3 3 2 2 2 2 2 1 1 1 2 2 2 2 2
0 0 0 0 1 1 1 1 2 2 2 3 4 5 5 4 3 3 4 4 4 3 3 2 2 2 2 2 2 2 3 3 4 4 3 3 2 2 2 2 2 2 2 2 2 2 2 2 2
0 0 0 1 1 1 2 2 2 2 3 3 4 6 6 4 3 4 5 5 4 4 3 3 3 2 2 2 2 2 2 3 3 3 3 3 3 2 2 2 2 2 2 2 2 2 2 2 2
0 0 0 1 1 2 2 3 2 2 2 3 4 6 6 4 3 4 6 6 5 4 4 4 4 4 3 4 4 3 2 2 2 2 2 2 2 2 2 2 2 2 2 2 2 2 2 2 2
0 0 1 1 2 2 2 2 2 2 3 3 4 5 5 4 3 4 6 7 6 5 5 6 7 7 5 5 5 4 3 3 2 2 3 2 3 3 3 3 3 2 2 2 2 2 2 2 2
0 1 1 2 2 2 2 2 2 3 3 3 4 5 5 5 5 6 8 8 7 6 5 7 8 8 7 6 6 5 4 3 3 3 3 3 3 4 4 4 4 3 3 3 2 2 3 2 2
1 1 2 2 2 2 2 2 3 3 3 3 5 6 7 8 8 8 9 9 8 7 6 7 7 7 7 6 6 6 5 4 4 4 4 4 5 5 5 5 4 3 3 3 2 2 3 3 2
1 1 2 2 2 1 1 2 3 4 4 4 6 7 8 8 9 9 9 10 10 8 7 6 6 6 6 5 5 6 5 5 5 5 5 6 6 6 5 4 4 3 3 3 2 2 3 3 3
1 1 1 1 1 1 1 1 3 4 4 4 5 6 6 7 7 8 9 11 11 9 8 7 6 6 5 5 5 6 6 6 6 6 6 7 6 5 4 4 3 3 3 3 3 2 3 3 3
0 0 1 1 1 1 1 2 3 4 4 4 4 5 5 5 6 7 9 11 11 10 9 9 7 7 6 6 6 7 7 7 7 6 6 6 5 4 4 3 3 3 3 3 3 3 3 3 3
0 0 1 1 1 1 1 2 4 4 3 3 4 5 5 5 6 7 10 11 10 11 12 11 9 8 8 8 8 8 8 8 7 7 6 6 5 4 3 3 3 3 2 3 3 3 3 3 2
0 0 1 1 1 1 1 3 4 3 3 3 4 5 6 5 6 8 10 11 11 12 14 14 11 10 9 10 9 8 9 9 9 9 8 6 5 4 3 3 2 2 2 2 2 2 2 2 2
1 1 1 1 1 0 1 3 4 3 3 3 4 5 6 5 7 8 10 10 11 13 14 14 12 10 10 11 10 10 11 11 11 11 9 7 5 4 3 3 2 2 2 2 2 2 2 2 2
1 1 1 1 0 0 1 2 3 3 3 3 4 5 5 5 7 8 9 10 12 13 14 12 10 10 11 12 13 14 14 14 12 11 10 7 5 4 3 3 3 2 2 2 2 2 2 2 2
1 1 1 0 0 0 1 1 2 3 3 3 4 5 6 6 6 7 9 11 13 14 13 11 9 9 10 13 15 15 14 13 12 12 10 7 5 4 4 4 3 3 2 2 2 2 2 2 2
0 0 0 0 0 0 0 1 2 3 3 3 4 6 6 6 6 7 9 13 14 13 12 11 10 9 10 11 12 12 11 11 11 11 9 7 5 4 4 4 4 3 3 3 3 3 3 3 3
0 0 0 0 0 0 0 1 1 2 3 4 5 7 6 6 7 9 12 14 14 12 12 13 13 10 9 9 8 7 7 8 9 9 8 5 4 4 4 4 5 4 4 3 3 4 4 4 3
0 0 0 0 0 0 0 1 2 3 4 5 7 8 7 7 8 10 13 14 13 12 14 16 14 11 8 7 6 6 6 6 7 7 6 4 3 3 4 4 5 5 4 4 4 4 4 3 3
0 0 0 0 0 1 1 1 4 5 5 6 8 8 7 8 9 10 11 11 10 11 14 15 13 9 7 6 5 5 5 5 6 5 4 3 3 3 3 3 4 4 4 4 4 3 2 2 2
0 0 0 0 0 0 1 2 4 6 7 6 7 6 6 6 7 8 9 8 8 10 12 12 10 7 6 5 5 5 5 5 5 4 3 3 3 3 3 3 4 4 4 4 3 3 2 1 1
0 0 0 0 0 0 0 1 3 5 6 6 5 5 4 5 6 7 7 7 6 7 10 11 10 7 5 5 5 4 4 4 4 4 3 3 3 3 3 3 4 4 4 3 2 2 1 1 1
0 0 0 1 1 0 0 1 3 5 6 5 5 5 4 5 6 8 7 6 6 7 9 11 10 7 5 4 4 3 3 3 3 3 2 2 2 3 3 3 4 4 3 2 1 1 1 0 1
0 0 0 1 1 1 1 2 3 5 6 6 6 5 4 5 8 9 7 6 5 7 10 12 10 6 4 3 3 3 3 3 3 3 2 1 1 2 2 3 4 3 2 1 1 1 0 0 0

GEFSSGP_con_maxscp_186.txt.gz
SCP
0 0 0 0 0 0 0 0 0 1 1 1 1 2 2 2 2 1 1 1 1 2 2 3 4 4 3 3 2 2 1 1 1 1 1 1 2 2 2 2 2 1 1 1 1 1 1 1 1
0 0 0 0 0 0 0 0 0 1 1 1 1 2 2 2 2 2 1 1 1 2 2 4 4 5 4 4 3 2 2 1 1 1 1 1 2 2 2 1 1 1 1 1 1 1 1 1 1
0 0 0 0 0 0 0 0 1 1 2 2 2 2 2 2 3 2 2 1 1 2 3 4 5 6 6 5 4 3 2 2 1 1 1 1 2 2 2 1 1 1 1 1 1 1 1 1 1
0 0 0 0 0 0 0 0 1 1 2 2 2 3 3 3 3 3 2 2 2 2 3 4 5 5 5 5 5 4 3 2 2 1 1 1 2 2 2 1 1 1 1 1 1 1 1 1 1
0 0 0 0 0 0 0 1 1 2 2 2 3 3 3 3 3 3 2 3 3 2 3 3 4 4 4 4 4 4 3 2 1 1 1 1 1 2 2 1 1 1 1 1 1 1 1 1 1
0 0 0 0 0 0 0 1 2 2 2 3 3 4 4 3 2 2 3 3 3 3 3 3 3 3 3 3 3 3 2 2 2 1 1 1 1 2 2 1 1 1 1 1 1 1 1 1 1
0 0 0 0 0 1 1 1 2 2 3 3 4 4 4 3 3 3 3 3 3 3 4 4 3 3 3 3 3 3 2 2 2 2 2 2 2 2 1 1 1 1 1 1 1 1 1 1 1
0 0 0 0 0 1 1 1 2 3 4 4 5 4 4 4 4 4 4 4 4 4 4 4 4 3 3 3 3 3 2 2 2 2 2 2 2 2 1 1 1 1 1 1 1 1 1 1 1
0 0 0 0 1 1 1 2 2 3 5 6 6 5 5 5 6 5 5 5 4 4 4 4 4 3 3 3 3 2 2 2 2 2 2 2 2 2 1 1 1 2 2 1 1 1 1 1 1
0 0 0 0 1 2 2 2 3 4 5 6 6 5 6 6 6 5 5 5 4 3 3 4 4 3 3 3 3 2 2 2 1 1 2 2 2 1 1 1 1 1 1 1 1 1 1 1 1
0 0 1 1 2 2 2 2 3 4 4 5 5 5 6 6 6 5 6 6 5 4 3 3 3 3 3 3 3 2 2 2 1 1 1 1 1 1 1 1 1 1 1 1 1 1 1 1 1
0 1 1 2 2 2 2 2 3 4 5 5 5 5 5 6 6 6 6 6 5 5 4 4 3 3 3 3 2 2 2 2 1 1 1 1 1 1 1 1 1 1 1 1 1 1 1 1 1
1 1 1 2 2 2 2 2 3 4 5 7 6 5 5 6 7 7 6 6 6 6 5 4 4 3 3 3 2 2 2 2 2 1 1 1 1 1 1 1 1 1 1 1 1 1 1 1 1
1 1 1 1 1 2 3 4 3 3 5 5 5 5 5 5 7 7 6 6 6 6 5 4 4 4 3 3 3 2 2 2 2 2 2 1 1 1 1 1 1 1 1 1 1 1 1 1 0
2 2 1 1 1 3 4 5 4 3 4 4 5 5 5 5 6 7 8 8 8 8 7 6 5 4 4 4 4 3 2 2 2 2 2 2 1 1 1 1 1 1 1 1 1 1 1 0 0
2 1 1 1 1 2 4 4 3 4 4 5 5 5 5 5 5 6 8 10 11 10 8 7 7 6 6 5 5 4 3 2 2 2 2 2 2 2 2 1 1 1 1 1 1 1 0 0 0
1 1 1 1 1 1 3 3 3 4 5 5 5 5 5 5 5 6 7 10 11 10 9 8 8 8 8 7 6 5 4 3 2 2 2 2 2 2 2 2 1 1 1 1 1 1 0 0 0
0 0 1 1 1 1 2 3 3 4 4 5 5 5 5 5 6 7 7 7 8 8 8 8 8 9 9 8 7 6 4 3 3 3 2 2 2 2 2 2 1 1 1 1 1 0 0 0 0
0 0 0 0 1 1 2 3 3 3 3 5 5 5 5 6 7 9 8 7 6 7 6 7 7 8 9 9 9 7 6 5 4 3 3 3 3 3 3 3 2 2 1 1 1 1 0 0 0
0 0 0 0 0 1 2 2 3 3 3 4 4 5 5 7 10 11 9 7 7 7 7 7 7 8 9 9 9 9 7 6 4 4 4 4 3 3 3 3 3 3 2 2 1 1 1 0 0
0 0 0 0 0 1 1 2 3 3 3 3 4 4 5 8 11 11 9 7 8 8 8 8 8 9 9 9 9 9 8 6 5 4 4 5 5 4 4 4 3 3 3 2 2 1 1 0 0
0 0 0 0 0 0 1 1 2 3 2 3 5 5 5 8 10 10 8 7 8 9 9 9 10 10 10 9 9 8 8 7 6 5 5 5 6 6 5 4 4 3 3 3 3 2 1 1 1
0 0 0 0 0 0 0 1 2 2 3 4 6 7 6 6 7 7 6 7 9 10 10 10 11 11 10 9 8 8 7 6 6 5 5 6 7 7 6 5 4 4 3 3 3 2 1 1 1
0 0 0 0 0 0 0 0 1 2 2 3 7 8 7 5 5 6 7 9 10 10 10 10 11 10 8 8 7 7 6 5 5 5 6 7 8 8 8 7 5 4 3 3 3 2 1 1 1
0 0 0 0 0 0 0 0 1 1 2 3 6 7 6 5 6 8 11 12 10 9 9 9 9 8 7 6 6 5 5 5 5 5 6 7 9 9 9 8 6 5 4 3 3 2 2 1 1
0 0 0 0 0 0 0 0 1 1 2 4 6 7 6 6 8 10 12 11 8 7 7 7 8 8 7 5 4 4 5 6 5 5 6 7 8 9 10 9 7 5 4 3 3 2 2 2 1
0 0 0 0 0 0 0 0 1 2 3 4 6 7 7 7 8 9 9 8 6 5 5 6 7 7 6 4 3 3 4 5 6 5 5 5 5 6 7 8 7 5 4 3 3 2 2 2 1
0 0 0 0 0 0 0 0 1 2 2 4 5 6 7 7 6 6 6 6 5 4 5 6 7 6 5 4 3 3 2 3 5 5 5 4 4 3 4 4 4 3 3 3 3 3 2 2 1
0 0 0 0 0 0 0 0 1 1 2 3 4 4 5 5 4 4 4 5 4 4 5 6 7 7 6 5 4 3 2 3 4 5 5 4 3 2 2 1 2 2 2 3 3 2 2 1 1
0 0 0 0 0 0 0 0 1 1 2 3 3 4 4 4 3 3 3 3 4 4 5 6 8 8 7 5 4 2 2 2 4 4 4 4 3 2 1 1 1 2 2 2 2 2 2 1 1

GEFSSGP_con_maxscp_192.txt.gz
SCP
0 0 0 0 0 0 0 0 0 0 0 1 1 1 1 1 1 1 1 1 1 1 1 2 2 2 2 3 3 3 3 3 2 2 2 3 3 3 2 2 2 2 2 1 1 2 2 2 2
0 0 0 0 0 0 0 0 0 0 1 1 1 1 1 1 1 1 1 1 1 1 2 2 2 2 3 3 3 3 3 3 2 2 2 3 3 2 2 2 2 2 2 2 2 2 2 2 2
0 0 0 0 0 0 0 0 0 1 1 1 1 1 1 1 1 1 1 1 1 2 2 2 3 3 3 3 3 3 3 3 3 3 2 2 2 2 2 2 2 2 2 2 2 2 2 2 1
0 0 0 0 0 0 0 0 1 1 1 1 1 2 2 1 1 1 1 1 2 2 2 3 3 4 4 4 4 4 4 4 4 3 3 2 2 2 2 2 2 2 2 2 2 1 1 1 1
0 0 0 0 0 0 0 0 1 1 1 1 2 2 2 2 2 1 2 2 2 2 3 3 4 4 5 4 4 4 4 4 4 4 3 3 2 2 2 2 2 2 2 2 1 1 1 1 1
0 0 0 0 0 1 1 1 1 1 1 2 2 3 2 2 2 2 2 2 2 2 3 4 5 5 5 5 5 5 5 5 4 4 3 3 2 2 2 2 2 2 2 1 1 1 1 1 1
0 0 0 0 0 1 0 1 1 1 2 2 3 3 2 2 2 2 2 2 2 3 3 4 5 5 5 5 5 5 5 4 4 3 3 2 2 2 2 2 2 2 1 1 1 1 1 1 1
0 0 0 0 0 0 0 1 1 1 2 3 3 3 2 2 2 2 2 2 3 3 4 4 5 5 5 5 5 5 5 4 4 3 2 2 2 2 2 2 2 2 2 2 1 1 1 1 1
0 0 0 0 0 0 1 1 1 2 2 3 3 3 2 3 3 3 3 3 3 3 3 4 5 5 5 5 5 5 5 4 4 3 2 2 2 2 2 2 2 2 2 2 2 2 1 1 1
0 0 1 1 1 1 1 1 1 2 2 2 3 3 3 4 4 4 3 3 3 3 3 4 5 6 5 5 5 5 5 4 3 3 2 2 2 2 1 1 1 1 1 1 1 2 2 1 1
0 1 1 1 1 1 1 1 1 1 2 2 3 4 4 5 5 5 4 4 3 3 3 4 6 6 6 5 6 5 5 4 3 2 2 2 2 1 1 1 1 1 1 1 1 1 1 1 1
1 1 1 1 1 1 1 1 1 1 2 2 2 4 5 6 6 5 5 4 4 3 3 4 5 6 5 5 6 5 4 3 3 3 2 2 2 1 1 1 1 1 1 1 1 1 1 1 1
1 1 1 1 1 1 1 2 2 2 2 2 2 3 5 6 6 6 6 5 4 3 3 4 4 5 5 5 5 5 4 3 3 2 2 2 1 1 1 1 1 1 1 1 1 1 1 1 1
1 1 1 1 1 1 2 2 2 2 2 2 2 3 6 7 7 7 6 5 4 4 3 3 3 4 4 4 4 4 3 3 3 2 2 2 1 1 1 0 1 1 1 1 1 1 1 1 1
0 0 1 1 1 2 2 2 2 2 2 2 2 3 5 8 8 8 7 6 5 4 3 3 3 3 3 3 3 3 3 3 3 2 2 1 1 1 1 1 1 1 1 1 1 1 1 0 0
0 0 1 1 1 2 2 2 2 2 2 2 2 3 4 6 7 7 7 6 5 4 4 3 3 3 3 3 3 3 3 3 2 2 1 1 1 1 1 1 1 1 1 1 1 1 0 0 0
0 0 1 1 1 1 2 2 2 2 2 2 3 3 3 3 4 5 5 5 4 4 4 4 3 3 3 3 3 3 3 2 2 1 1 1 1 1 1 1 1 1 1 1 1 0 0 0 0
0 0 0 0 1 1 2 2 2 2 3 3 3 4 4 4 4 4 4 3 3 3 4 4 4 3 3 3 3 3 3 2 2 1 1 1 1 1 1 1 1 1 1 1 1 0 0 0 0
0 0 0 1 1 1 2 2 2 3 3 3 3 4 5 6 7 6 5 4 4 4 4 4 4 4 4 3 3 3 3 2 2 2 1 1 1 1 1 1 1 1 1 1 1 0 0 1 1
0 0 0 1 1 1 1 1 2 2 3 3 3 4 6 7 8 7 5 4 4 4 4 5 6 6 5 4 3 3 3 3 2 2 2 1 1 1 1 1 1 1 1 1 1 1 1 1 1
0 0 0 0 1 1 1 1 1 2 2 2 2 3 4 5 6 5 4 4 4 4 4 5 7 7 7 5 4 4 3 3 3 2 2 2 2 2 2 2 2 2 2 1 1 1 1 1 1
0 0 0 0 0 0 1 1 1 1 1 1 2 2 3 3 4 3 3 3 4 4 3 4 6 8 8 6 5 5 4 3 3 3 3 3 2 2 2 2 2 2 2 2 1 1 1 1 1
0 0 0 0 0 0 0 0 0 1 1 1 2 2 3 3 3 3 3 4 5 4 4 4 5 6 7 7 7 7 6 5 5 5 5 4 3 3 2 2 2 2 2 2 2 1 1 1 1
0 0 0 0 0 0 0 0 0 0 1 1 2 2 3 4 5 5 5 5 6 5 5 5 5 5 5 5 7 8 8 7 7 6 6 5 4 3 3 3 3 2 2 2 2 2 1 1 1
0 0 0 0 0 0 0 0 0 0 0 1 1 2 4 6 7 7 7 7 7 6 6 6 5 4 3 4 5 6 7 7 6 5 4 4 4 4 4 3 3 2 2 2 2 3 2 2 1
0 0 0 0 0 0 0 0 0 0 1 1 1 2 3 5 7 8 8 8 7 6 6 5 4 3 3 3 4 5 5 5 4 3 2 3 3 4 4 4 3 3 3 2 3 3 3 2 2
0 0 0 0 0 0 0 0 0 0 1 1 1 2 2 4 6 7 7 6 5 5 5 4 3 3 2 2 3 3 3 3 2 2 1 2 2 3 3 3 3 3 3 3 3 3 3 3 3
0 0 0 0 0 0 0 0 0 0 1 1 1 1 2 3 4 4 4 4 4 4 4 4 3 3 2 2 2 2 2 1 1 1 1 1 2 2 3 3 3 3 3 4 4 4 3 3 3
0 0 0 0 0 0 0 0 0 0 1 1 1 1 1 2 2 3 3 3 3 3 3 3 3 2 2 2 2 2 2 1 1 1 1 1 1 2 2 2 3 3 3 3 4 4 3 3 3
0 0 0 0 0 0 0 0 0 0 0 1 2 1 1 1 2 2 2 2 2 3 3 3 3 3 2 2 2 2 2 1 1 1 1 0 1 1 1 2 2 2 3 3 3 4 3 3 3

GEFSSGP_con_maxscp_198.txt.gz
SCP
0 0 0 0 0 0 0 0 0 0 0 0 0 0 0 0 0 0 1 1 1 2 2 2 2 2 2 2 2 2 2 2 2 2 2 2 2 2 2 2 2 2 1 1 1 1 1 1 1
0 0 0 0 0 0 0 0 0 0 0 0 0 0 0 0 1 1 1 1 1 2 2 2 2 2 2 2 2 2 2 2 2 2 2 2 2 2 2 1 1 1 1 1 1 1 1 1 1
0 0 0 0 0 0 0 0 0 0 0 0 0 1 1 1 1 1 1 1 2 2 2 2 2 2 2 2 2 2 2 2 2 2 2 2 2 1 1 1 1 1 1 1 1 1 1 1 1
0 0 0 0 0 0 0 0 0 0 0 0 1 1 1 1 1 1 1 1 2 2 2 2 2 2 2 2 2 2 2 3 3 2 2 2 2 2 2 1 1 1 1 1 1 1 1 1 1
0 0 0 0 0 0 0 0 0 0 0 0 1 1 1 1 2 1 1 1 2 2 3 3 2 2 2 2 2 2 3 3 3 3 2 2 2 2 2 2 2 2 2 1 1 1 1 1 1
0 0 0 0 0 1 1 0 0 0 0 0 1 1 1 2 2 1 1 1 2 2 3 3 3 3 3 3 3 3 3 3 3 3 2 2 2 2 2 2 2 2 2 2 1 1 1 1 1
0 0 0 0 1 1 1 1 0 0 0 0 1 1 1 2 2 2 1 2 2 2 3 3 3 3 3 3 3 3 3 3 3 3 2 2 2 2 2 2 2 2 2 2 1 1 1 1 1
0 0 0 0 0 1 1 1 1 1 1 1 1 1 2 2 2 2 2 2 2 2 3 3 4 4 3 3 4 4 4 4 3 3 3 2 2 2 2 2 2 2 2 2 2 2 1 1 1
0 0 0 0 1 1 1 1 1 1 1 1 1 2 2 2 3 3 3 3 2 2 3 3 4 4 4 4 4 5 5 5 4 3 3 2 2 2 2 2 2 2 2 2 2 2 2 2 1
0 0 0 1 1 1 1 1 1 1 1 2 2 2 2 3 3 3 3 3 3 3 3 4 4 5 5 6 6 6 6 6 5 4 3 3 2 2 2 3 3 2 2 2 2 2 2 1 1
0 0 1 1 1 1 1 1 1 1 1 2 2 3 3 3 3 3 3 4 4 4 3 3 4 5 6 7 8 7 7 6 5 4 4 4 3 3 3 3 3 3 2 2 2 2 2 1 1
0 0 1 1 1 1 1 1 1 1 2 3 4 4 3 3 4 4 3 3 4 5 4 4 4 5 6 7 7 7 7 6 6 6 5 5 4 4 4 4 4 3 3 3 3 2 2 2 2
0 0 1 1 1 1 1 1 1 2 3 4 5 5 4 4 4 4 4 3 4 5 5 5 5 6 7 7 6 6 6 6 7 7 6 6 5 4 4 4 4 4 3 3 3 2 2 2 2
0 0 1 1 1 1 1 1 1 3 4 5 5 4 3 4 5 6 5 5 5 6 6 6 6 7 7 7 6 6 6 6 6 7 6 6 5 4 4 4 4 4 3 3 3 3 3 3 3
0 0 1 1 1 1 1 1 1 3 4 4 3 3 3 4 5 7 7 7 6 6 6 7 6 7 7 7 7 6 6 6 6 6 6 5 5 4 4 4 4 3 3 3 3 3 4 4 4
0 0 0 1 1 1 1 1 1 3 3 2 2 2 2 3 4 6 7 7 6 6 6 7 7 7 7 6 6 6 6 6 6 6 5 5 4 4 4 4 4 3 3 3 3 3 4 4 4
0 0 0 0 1 1 1 1 1 2 2 2 2 2 2 2 3 4 4 5 5 5 5 6 8 8 7 6 6 6 6 6 6 6 5 4 4 4 4 5 4 3 3 3 2 3 3 3 4
0 0 0 0 0 1 1 1 1 2 2 2 2 2 2 2 3 4 4 4 4 4 4 5 7 8 7 6 5 5 5 6 6 5 4 4 4 4 5 5 4 3 3 2 2 2 2 3 3
0 0 0 0 0 0 0 1 1 2 3 2 2 2 2 3 4 5 5 4 4 4 4 4 5 6 6 6 5 5 5 5 5 5 4 4 4 4 5 4 3 3 2 2 2 2 2 2 2
0 0 0 0 0 0 0 0 1 1 2 3 2 2 3 3 4 5 5 5 4 4 4 4 4 5 5 6 5 5 5 5 5 4 4 4 4 3 3 3 3 3 3 2 2 2 1 1 1
0 0 0 0 0 0 0 0 0 1 2 2 3 3 3 3 4 4 4 4 4 4 4 4 4 5 5 6 6 6 6 6 6 5 4 4 4 3 3 3 3 4 4 3 2 2 1 1 1
0 0 0 0 0 0 0 0 0 1 1 2 2 3 3 3 3 3 4 4 3 3 4 4 4 5 5 6 6 6 7 7 6 5 5 4 4 3 3 3 3 4 3 3 2 2 2 1 1
0 0 0 0 0 0 0 1 1 1 1 1 2 2 3 3 3 3 4 5 4 4 4 5 5 5 6 6 6 6 7 7 7 5 5 5 4 4 3 3 3 3 3 2 3 2 2 1 1
0 0 0 0 0 0 1 1 1 1 1 1 1 2 2 3 3 3 4 6 5 5 6 6 6 6 6 5 5 5 6 7 6 5 5 5 5 4 3 3 3 3 3 3 3 3 3 2 2
0 0 0 0 0 0 1 1 1 1 1 1 1 1 2 2 3 3 4 5 6 6 7 7 7 7 6 5 4 5 6 7 6 5 5 5 5 4 3 3 3 3 3 3 3 3 3 2 2
0 0 0 0 0 1 1 1 1 1 1 1 1 1 2 2 2 3 3 5 5 6 6 6 7 7 6 5 4 5 5 6 5 5 5 5 5 3 2 3 3 3 3 3 3 3 3 3 3
0 0 0 0 0 0 1 1 1 1 1 1 1 1 2 2 3 3 4 4 5 5 5 6 7 7 6 4 4 4 4 4 4 4 4 5 4 3 2 2 3 2 2 2 3 3 3 3 3
0 0 1 0 0 0 0 0 1 1 1 1 1 1 2 2 3 4 4 4 4 3 4 5 6 6 5 3 3 3 3 3 4 4 4 4 4 3 2 2 2 2 2 2 3 3 3 2 2
1 1 1 1 1 1 1 0 0 0 0 1 1 2 2 3 3 4 3 3 3 2 3 4 5 4 4 4 4 4 3 3 3 3 4 5 5 3 2 2 2 1 1 2 3 3 2 2 2
1 1 1 1 1 1 1 0 0 0 0 1 1 2 2 3 3 3 3 3 2 2 2 3 3 3 4 5 5 5 4 3 2 3 4 5 4 3 2 1 1 1 1 2 2 2 2 1 1

GEFSSGP_con_maxscp_204.txt.gz
SCP
0 0 0 0 0 0 0 0 0 0 0 0 0 0 0 1 1 1 2 3 4 4 4 4 3 3 2 2 1 1 1 1 1 1 1 1 1 1 1 1 2 2 1 1 1 1 1 1 1
0 0 0 0 0 0 0 0 0 0 0 0 0 0 1 1 1 2 2 3 4 5 4 4 4 3 2 2 2 2 2 2 1 1 1 1 1 1 2 2 2 1 1 1 1 1 1 1 1
0 0 0 0 0 0 0 0 0 0 0 0 0 1 1 1 2 2 3 3 4 5 5 5 4 3 3 2 2 2 3 3 2 1 1 1 1 2 2 2 1 1 1 1 1 1 1 1 1
0 0 0 0 0 0 1 1 1 0 0 0 1 1 1 2 2 3 3 4 5 6 6 5 4 3 3 2 2 3 3 3 2 2 2 1 2 2 2 2 2 1 1 1 1 1 1 1 1
0 0 0 0 0 1 1 1 1 0 0 0 1 1 2 3 3 3 4 5 6 7 7 5 4 3 3 3 3 3 3 2 2 2 2 2 2 2 2 2 2 2 2 1 1 1 1 1 1
0 0 0 0 0 1 1 1 1 0 0 1 1 2 3 4 4 4 4 5 6 7 6 5 3 3 3 3 3 3 2 2 2 2 2 2 2 2 2 2 2 2 2 2 1 1 1 1 1
0 0 0 0 0 0 1 1 1 1 1 1 1 2 4 5 4 4 4 5 5 5 5 4 3 3 4 4 3 3 3 3 2 2 2 2 2 2 2 2 2 2 2 2 1 1 1 1 1
0 0 0 0 0 0 1 1 1 1 1 1 2 4 5 6 5 4 4 4 4 4 4 4 3 3 4 4 3 3 3 3 3 3 3 3 3 2 2 2 2 2 2 2 1 1 1 1 1
0 0 0 0 0 1 1 1 1 1 1 2 4 7 8 7 6 5 4 4 4 4 5 4 3 4 4 4 4 4 4 4 4 4 4 4 3 2 2 2 2 2 2 2 2 2 2 1 1
0 0 0 0 0 1 1 1 1 1 1 2 6 9 10 8 6 5 4 4 4 4 5 5 5 6 6 5 5 4 4 4 5 5 5 4 3 2 2 2 2 3 3 2 2 2 2 2 1
0 0 0 0 1 1 0 0 1 1 2 3 5 8 9 8 6 4 4 4 4 5 6 7 8 8 7 6 5 4 4 4 4 5 5 4 3 2 2 2 3 3 3 2 2 2 2 2 2
0 0 0 1 1 1 1 1 1 2 2 3 5 7 9 8 7 5 4 5 6 7 9 10 10 9 7 6 6 5 4 4 4 4 4 4 3 2 2 3 3 3 3 3 3 3 2 2 2
0 0 0 1 1 1 2 2 2 2 3 4 5 7 10 12 11 8 7 8 10 12 12 10 10 10 9 9 8 6 5 5 4 4 4 4 3 3 3 4 4 3 3 3 3 3 3 3 3
0 0 0 0 1 1 2 2 2 3 4 4 5 7 11 14 14 12 11 11 12 13 12 9 9 10 12 12 11 8 6 6 5 5 5 5 4 4 5 4 4 4 4 4 4 4 4 4 4
0 0 0 0 0 1 1 1 1 3 4 4 5 7 9 11 11 11 11 10 10 11 11 10 8 10 12 12 11 9 7 7 7 6 6 5 5 5 6 5 5 5 5 5 5 5 4 4 4
0 0 0 0 0 0 0 1 2 3 3 4 4 6 7 7 7 7 7 8 7 9 12 11 9 10 11 11 10 9 8 8 7 7 7 6 6 6 6 5 5 5 5 5 5 4 4 4 4
0 0 0 0 0 0 0 1 2 3 3 3 4 6 8 7 6 5 6 6 6 9 13 14 12 12 12 11 9 8 8 8 7 7 7 7 7 7 6 5 5 5 5 5 5 4 3 3 3
0 0 0 0 0 0 0 1 2 2 3 3 3 5 8 8 7 6 6 6 7 10 14 16 16 15 14 11 9 8 8 8 7 7 7 8 7 7 6 5 5 6 6 5 4 3 3 3 2
0 0 0 0 0 0 1 2 2 2 2 2 3 5 9 9 8 7 6 8 10 13 16 16 16 16 14 11 9 7 6 6 6 7 7 8 7 7 6 5 6 6 5 4 3 3 2 2 2
0 0 0 0 0 0 1 2 2 2 2 2 3 5 8 9 9 8 8 9 13 17 17 15 13 13 12 10 8 6 5 6 6 6 7 8 8 7 7 6 7 6 5 4 3 3 3 2 2
0 0 0 0 0 1 1 2 2 3 3 4 4 5 7 8 8 8 8 11 14 17 16 13 11 11 10 9 7 6 6 6 5 6 7 8 9 8 7 7 8 7 6 5 4 4 3 2 2
0 0 0 0 0 0 1 2 3 3 4 5 6 7 7 7 7 8 8 10 13 13 12 11 11 11 11 9 8 7 6 6 6 6 7 8 9 9 8 8 8 8 7 7 6 5 3 2 2
0 0 0 0 0 0 1 1 2 3 4 5 6 7 7 7 7 8 7 8 10 10 10 11 11 11 11 11 10 9 8 6 6 6 7 8 9 8 8 9 8 8 8 8 7 5 4 3 2
0 0 0 0 0 0 1 1 2 2 3 4 5 5 6 6 7 8 7 7 8 9 10 12 12 12 11 11 11 10 8 6 6 7 7 8 8 8 8 9 9 9 8 7 7 6 5 4 3
0 0 0 0 0 0 1 1 2 2 2 2 3 3 3 4 6 8 8 7 8 10 12 14 14 13 12 11 10 9 8 7 7 7 8 8 7 6 7 9 9 8 7 6 6 6 5 4 3
0 0 0 0 0 0 1 1 1 2 2 2 2 2 3 3 5 7 9 10 10 12 14 16 17 16 14 11 10 9 10 9 8 7 8 8 7 6 6 7 8 6 5 4 5 5 4 3 3
0 0 0 0 0 0 1 1 1 1 2 2 2 3 3 3 4 7 11 13 13 14 15 17 20 20 17 13 11 10 10 10 9 8 8 7 6 5 6 6 6 5 4 4 4 3 3 2 2
0 0 0 0 0 0 1 1 1 1 2 2 2 3 3 3 4 8 12 14 14 16 16 16 20 20 17 14 11 10 10 10 9 8 7 6 5 5 5 5 5 5 5 5 4 4 3 3 2
0 0 0 0 0 1 1 1 1 2 2 3 2 3 3 3 5 9 11 11 13 14 12 12 14 15 14 13 12 12 11 10 9 7 5 4 4 5 5 5 5 6 6 6 5 4 3 2 2
0 0 0 0 1 1 1 1 2 2 3 3 3 3 3 4 7 9 9 9 11 11 9 8 10 11 11 12 13 13 12 11 8 6 4 3 4 4 5 5 6 7 7 6 5 4 3 2 1

GEFSSGP_con_maxscp_210.txt.gz
SCP
0 0 0 0 0 0 0 0 0 0 0 0 1 1 1 1 1 1 2 2 2 2 3 3 4 3 3 3 3 3 3 3 2 2 2 2 2 3 3 2 2 2 2 1 1 1 1 1 1
0 0 0 0 0 0 0 0 0 0 0 0 1 1 1 2 2 2 2 2 2 2 3 4 4 3 3 3 3 3 3 3 2 2 2 2 2 3 3 2 2 2 2 1 1 1 1 1 1
0 0 0 0 0 0 0 0 0 1 1 1 1 2 2 2 2 2 3 3 2 2 3 4 4 4 3 3 3 3 3 3 2 2 2 2 2 3 3 3 2 2 2 2 1 1 1 1 1
0 0 0 0 0 0 0 0 1 1 1 1 2 3 3 3 3 4 4 4 3 3 3 4 4 4 3 3 3 3 3 3 3 2 2 3 3 3 3 3 3 3 3 2 2 1 1 1 1
0 0 0 0 0 0 0 1 1 1 1 2 3 4 4 4 5 6 6 5 3 3 4 5 5 4 3 3 3 3 3 3 3 3 2 3 3 3 3 3 3 3 3 2 2 2 2 2 2
0 0 0 0 0 0 0 1 1 1 1 2 3 4 4 5 6 7 6 4 3 3 5 6 5 5 4 4 3 3 3 3 3 3 3 3 3 3 3 3 3 3 2 2 2 2 2 2 2
0 0 0 0 0 0 0 1 1 1 2 2 4 4 4 5 6 7 6 5 4 4 5 6 6 5 4 4 4 4 4 3 3 3 3 3 3 3 3 3 3 2 2 2 2 2 2 2 2
0 0 0 0 0 0 0 1 1 1 2 3 4 4 5 6 7 8 7 5 4 5 5 6 6 5 5 5 4 4 4 4 3 3 3 3 2 2 2 3 2 2 1 1 1 1 1 1 1
0 0 0 0 0 0 0 0 1 2 3 5 5 5 6 8 10 9 8 6 5 5 5 6 6 6 5 5 4 4 4 3 3 3 3 3 3 2 2 2 2 1 1 1 1 1 1 1 1
0 0 0 0 0 0 0 1 1 2 4 5 6 7 9 12 13 12 10 7 5 5 5 6 6 6 6 5 4 3 3 3 3 3 3 3 3 2 2 2 1 1 1 1 1 1 1 1 1
0 0 0 0 0 0 1 1 1 2 3 5 7 9 12 14 15 14 12 9 6 5 5 6 6 6 5 4 3 3 3 3 3 3 3 4 3 3 2 2 2 1 1 2 2 2 2 1 1
0 0 0 0 1 1 1 2 2 2 3 5 8 10 12 13 15 15 15 12 8 6 6 6 5 4 4 3 3 3 3 3 4 4 4 4 5 3 2 2 2 2 2 2 1 1 1 1 1
0 0 0 0 1 1 1 2 2 3 5 7 9 9 9 10 12 14 15 13 10 7 7 6 4 4 3 3 3 3 3 3 4 4 4 5 5 4 4 3 3 2 2 2 1 1 1 1 1
0 0 0 0 1 1 1 1 3 4 6 8 9 9 8 8 8 9 12 13 10 8 7 6 4 3 3 2 2 2 3 3 4 4 4 4 5 5 5 4 3 2 2 1 1 1 1 1 1
0 0 0 0 0 1 1 2 3 5 7 9 10 10 9 7 6 6 8 10 10 8 7 6 4 3 2 2 2 2 2 3 3 3 3 3 4 4 4 4 3 2 2 1 1 1 1 1 1
0 0 0 0 0 1 1 2 3 6 8 10 12 12 10 8 6 5 5 7 7 7 7 6 4 3 3 2 2 2 2 2 2 3 3 3 3 3 4 3 3 2 2 2 1 1 1 1 1
0 0 0 0 0 0 1 2 3 5 7 10 12 13 10 7 5 4 4 5 5 5 6 6 5 4 4 4 4 3 3 2 2 2 2 3 3 3 3 3 2 2 2 2 2 1 1 1 1
0 0 0 0 0 0 1 2 3 4 7 10 11 11 9 6 5 4 4 4 4 5 5 5 5 6 7 7 6 5 4 4 3 2 2 2 3 3 3 3 3 2 2 3 2 2 1 1 1
0 0 0 0 0 1 2 2 3 4 7 9 9 8 7 5 4 4 4 4 4 5 5 5 6 7 9 10 9 8 7 5 4 3 2 2 3 3 3 3 3 3 3 3 2 2 1 1 1
0 0 0 0 0 1 2 3 3 4 6 7 7 6 6 5 4 4 4 3 5 6 6 6 6 7 8 9 10 9 8 6 5 4 3 3 3 3 3 3 3 3 2 2 2 1 1 1 1
0 0 0 0 0 1 2 3 3 4 5 6 6 5 4 4 4 4 3 3 5 6 7 6 6 6 6 8 9 8 7 6 4 4 3 3 3 3 3 3 2 2 2 2 2 2 1 1 1
0 0 0 0 0 1 1 2 3 4 6 6 5 4 4 4 4 4 3 3 5 7 8 7 6 5 6 7 8 7 6 5 4 3 3 3 3 3 3 3 2 2 2 2 2 2 2 1 1
0 0 0 0 0 0 0 1 1 3 4 5 4 3 4 4 4 4 4 4 6 8 8 7 6 5 6 7 7 7 6 5 4 4 3 3 3 3 3 2 2 2 2 5 7 5 2 2 1
0 0 0 0 0 0 0 0 1 2 3 3 2 2 3 4 5 5 6 7 8 7 7 7 6 6 6 6 7 7 7 7 6 9 10 8 4 3 2 2 1 2 2 7 11 7 2 2 2
0 0 0 0 0 0 0 0 0 1 2 2 1 2 2 3 4 6 9 10 9 6 6 7 6 5 6 6 6 6 7 8 7 12 18 11 5 4 3 2 1 1 2 5 7 5 2 2 1
0 0 0 0 0 0 0 0 0 1 1 1 1 1 2 2 3 6 10 10 8 6 5 5 5 5 5 6 7 7 7 7 7 11 13 10 5 4 3 2 1 1 1 2 2 2 1 2 2
0 0 0 0 0 0 0 0 0 1 1 1 1 1 2 2 3 6 9 8 6 5 5 5 5 5 4 5 7 8 7 7 7 7 7 6 5 4 3 2 2 2 2 2 2 1 1 2 2
0 0 0 0 0 0 0 0 0 0 0 1 1 1 2 2 4 7 8 7 5 4 4 5 6 5 4 4 6 7 8 7 7 7 6 5 5 4 3 3 2 2 2 2 2 2 1 1 2
0 0 0 0 0 0 0 0 0 0 0 1 1 2 2 3 5 7 7 5 4 4 4 4 5 5 4 4 5 6 7 7 7 6 5 5 4 4 4 4 3 3 3 3 3 2 2 2 2
0 0 0 0 0 0 0 0 0 0 0 1 1 2 3 4 5 6 6 5 3 3 3 3 4 5 4 4 4 6 7 7 7 6 5 5 4 4 4 4 4 4 4 3 3 3 3 2 2

GEFSSGP_con_maxscp_216.txt.gz
SCP
0 0 0 0 0 0 0 0 0 0 0 0 0 0 1 1 1 1 1 1 1 2 2 3 3 3 3 3 3 3 2 3 3 3 3 2 2 2 2 2 2 1 2 2 2 2 2 1 1
0 0 0 0 0 0 0 0 0 0 0 0 0 1 1 1 1 1 1 1 1 2 2 3 3 3 3 3 3 3 3 3 3 3 3 2 2 2 2 2 2 1 2 2 2 2 1 1 1
0 0 0 0 0 0 0 0 0 0 0 0 1 1 1 2 2 2 1 1 2 2 2 3 3 3 3 4 4 4 4 4 3 3 2 2 2 2 2 2 2 2 2 2 2 2 2 1 1
0 0 0 0 0 0 0 0 1 1 1 1 1 2 2 3 3 3 2 2 2 3 3 3 3 3 3 4 4 4 4 4 4 3 2 2 2 2 2 2 2 2 2 2 2 2 2 1 1
0 0 0 0 0 0 0 0 1 1 1 1 2 2 3 4 4 3 2 2 3 3 3 4 4 4 4 4 4 4 4 4 3 3 2 2 2 2 2 2 2 2 2 2 2 2 2 1 1
0 0 0 0 0 0 0 0 1 1 1 1 2 3 3 4 4 3 3 3 3 3 4 5 4 4 4 4 4 4 4 3 3 3 2 2 2 2 2 2 2 2 2 2 2 2 2 1 2
0 0 0 0 0 0 0 0 1 1 1 1 2 3 3 3 3 3 3 3 3 4 5 5 5 4 3 3 3 3 3 3 3 3 2 2 2 2 2 2 2 2 2 2 2 1 1 2 2
0 0 0 0 0 0 0 0 1 1 1 2 3 3 2 3 3 4 4 4 4 5 6 5 4 4 3 3 3 3 3 3 3 3 2 2 2 2 2 2 2 2 2 1 1 1 1 2 2
0 0 0 0 0 0 0 0 1 1 2 2 3 3 3 4 5 5 5 5 5 5 6 5 4 4 4 3 3 3 3 3 3 2 2 2 2 2 2 2 2 2 2 2 2 2 1 1 2
0 0 0 0 0 0 1 1 1 2 2 3 3 4 5 6 7 7 7 7 6 6 5 5 5 5 5 5 4 4 4 3 2 2 2 2 2 2 2 1 1 2 2 2 2 2 1 1 2
0 0 0 0 0 1 1 1 1 2 2 3 4 5 6 8 8 9 9 8 7 6 5 5 6 6 6 6 5 5 4 4 3 2 2 2 2 2 2 2 1 1 2 2 1 1 1 1 1
0 0 0 0 1 1 1 1 1 1 2 3 4 5 7 9 9 9 9 8 7 6 5 5 6 7 7 6 6 5 5 5 4 3 3 3 2 2 2 2 1 1 1 1 1 1 1 1 1
0 0 0 0 1 1 1 1 1 1 2 3 4 5 7 8 8 7 6 6 5 5 5 5 5 7 7 7 6 6 5 5 4 3 3 3 3 2 2 2 2 1 1 1 1 1 1 1 1
0 0 0 0 0 1 1 1 1 2 3 4 5 5 5 6 6 5 4 4 4 4 5 4 4 6 6 6 6 6 5 4 4 3 3 3 3 2 2 2 2 2 2 2 2 2 1 1 1
0 1 1 0 0 0 1 1 1 2 3 4 4 4 4 4 4 3 3 3 3 4 4 4 4 4 5 5 5 5 4 3 3 3 3 3 3 3 2 2 2 2 3 3 3 2 2 2 1
0 0 0 0 0 0 1 1 1 2 3 3 3 3 3 3 3 3 2 2 2 3 3 3 4 4 4 4 4 3 3 3 3 3 3 3 3 3 2 2 2 2 3 3 3 3 3 2 2
0 0 0 0 0 1 1 1 1 2 2 3 3 3 3 3 3 2 2 2 2 2 3 3 4 4 4 3 3 2 2 2 2 2 2 2 2 2 2 2 2 2 2 3 3 3 3 3 2
0 0 0 0 0 1 1 1 1 1 1 2 2 2 3 3 2 2 2 2 2 2 2 3 4 5 5 4 3 2 2 1 2 2 2 2 2 2 2 3 2 2 2 2 2 3 3 3 3
0 0 0 0 0 1 1 2 1 1 1 2 2 2 2 2 2 2 2 2 1 1 2 4 6 7 7 5 3 2 2 2 2 2 2 2 2 3 2 2 3 2 2 2 2 3 2 2 2
0 0 0 0 0 1 1 1 1 1 2 2 3 3 2 2 2 2 2 2 2 1 2 4 7 8 7 5 3 3 3 2 2 2 2 3 3 3 2 2 3 3 2 2 2 3 2 2 2
0 0 0 0 0 1 1 1 1 1 3 4 4 4 3 2 2 2 2 2 2 2 2 4 6 7 6 5 4 4 4 3 3 3 3 2 2 2 2 2 2 2 2 2 2 2 2 1 1
0 0 0 0 0 0 0 1 1 1 3 4 5 5 4 3 3 2 2 2 2 2 2 3 4 5 5 4 4 4 5 4 4 3 3 2 2 2 2 2 2 2 2 2 2 2 2 1 1
0 0 0 0 0 0 0 0 0 1 2 3 4 5 4 4 3 2 2 2 2 2 2 3 3 4 4 5 5 5 5 4 3 3 3 3 3 2 2 3 3 3 2 2 1 1 1 1 1
0 0 0 0 0 0 0 0 0 0 1 1 3 3 4 3 3 2 2 2 3 3 3 2 2 3 5 6 6 5 5 4 4 3 3 3 3 3 3 3 3 3 3 2 2 2 1 1 1
0 0 0 0 0 0 0 0 0 0 0 1 2 3 3 2 2 2 2 3 3 3 3 2 2 3 5 6 6 6 6 6 5 5 4 4 3 3 3 3 3 3 3 2 2 2 2 1 1
0 0 0 0 0 0 0 0 0 0 0 1 2 2 2 2 2 2 2 3 3 3 2 2 2 3 4 6 7 7 7 7 7 6 5 4 4 4 3 3 4 3 3 3 3 2 2 2 1
0 0 0 0 0 0 0 0 0 0 0 1 1 2 2 1 1 2 3 3 3 3 2 2 2 2 3 4 5 6 7 7 7 7 7 6 5 4 4 4 4 4 3 3 3 3 3 2 2
0 0 0 0 0 0 0 0 0 0 0 0 1 2 2 1 1 2 3 3 2 2 2 2 2 2 3 3 4 4 5 6 7 7 8 7 6 5 5 4 4 4 4 4 4 3 3 3 3
0 0 0 0 0 0 0 0 0 0 0 0 1 1 1 1 2 3 3 2 1 1 1 2 3 3 3 3 3 3 3 4 5 7 8 7 6 6 5 5 5 5 5 5 4 4 4 4 4
0 0 0 0 0 0 0 0 0 0 0 0 1 1 1 1 2 2 2 2 1 0 1 1 3 3 3 3 3 3 3 3 4 6 7 7 6 6 6 6 6 5 5 5 5 4 4 4 4

GEFSSGP_con_maxscp_222.txt.gz
SCP
0 0 0 0 0 0 0 0 0 0 0 0 0 0 0 0 1 1 1 1 2 2 3 4 4 4 3 3 3 2 2 2 2 3 2 2 2 2 2 1 1 1 2 2 2 1 1 2 2
0 0 0 0 0 0 0 0 0 0 0 0 0 0 0 1 1 1 1 1 2 3 4 4 4 4 4 3 3 2 2 2 2 2 2 2 2 2 2 1 1 1 1 2 2 2 1 2 2
0 0 0 0 0 0 0 0 0 0 0 0 0 0 0 1 1 1 1 2 2 3 4 5 5 5 4 4 3 3 2 2 2 2 2 2 2 2 2 2 1 1 1 1 1 1 1 1 1
0 0 0 0 0 0 0 0 0 0 0 0 0 0 1 1 2 2 2 2 3 4 5 5 6 5 5 4 3 3 3 3 3 3 2 2 2 2 2 2 2 1 1 1 1 1 1 2 1
0 0 0 0 0 0 0 0 0 0 0 0 0 1 1 2 3 3 3 3 4 5 5 6 6 5 5 4 4 3 4 3 3 3 3 3 3 2 2 2 1 1 1 1 1 1 2 2 2
0 0 0 0 0 0 0 0 0 0 0 0 1 1 1 2 3 4 4 4 5 6 6 6 6 5 5 4 4 4 4 4 4 4 4 4 3 3 2 2 1 1 1 1 2 2 2 2 2
0 0 0 0 0 0 1 1 1 1 1 1 1 1 1 2 3 4 4 4 5 6 6 6 5 5 4 4 4 4 4 4 4 4 4 4 4 3 2 2 1 2 2 1 2 2 2 2 2
0 0 0 0 0 0 1 1 1 1 1 1 1 1 2 3 4 5 5 5 6 7 7 6 5 4 4 3 4 4 4 4 4 4 4 4 3 3 2 2 1 2 2 1 2 2 2 2 2
0 0 0 0 0 0 1 1 1 1 1 1 2 3 3 4 5 6 6 7 7 8 8 7 6 5 4 3 4 4 4 4 4 4 3 3 3 3 2 2 1 1 1 1 1 2 2 1 1
0 0 0 0 0 0 1 1 1 1 1 2 2 4 5 5 6 7 7 7 7 7 8 9 8 7 5 4 4 5 5 5 4 3 3 3 3 3 2 2 1 1 1 1 1 1 1 1 1
0 0 0 0 0 1 1 1 2 2 2 2 2 4 5 5 5 6 6 6 6 6 6 8 9 8 6 5 5 6 6 5 4 4 4 4 4 3 3 2 2 1 1 1 1 1 1 1 1
0 0 0 0 1 1 1 2 2 2 2 2 2 4 5 5 5 4 4 5 5 5 4 5 6 7 6 6 6 6 6 5 5 5 5 5 4 4 3 3 2 2 2 1 1 1 1 1 1
0 0 0 1 1 1 1 1 1 1 1 1 2 3 4 4 4 3 4 4 4 4 4 4 4 5 5 6 6 6 5 5 5 5 6 5 5 4 4 4 3 3 2 2 1 1 1 1 1
0 0 0 1 1 1 1 1 1 1 1 1 2 2 3 3 3 3 4 4 4 5 4 4 4 4 4 5 5 5 5 4 4 5 5 5 4 4 4 4 4 3 3 2 2 2 2 2 2
0 0 0 0 1 1 1 1 1 1 1 1 1 2 2 3 3 3 4 5 5 6 6 6 5 4 4 4 5 5 5 4 4 4 4 4 3 3 3 3 3 4 3 3 2 2 2 2 2
0 0 0 0 0 1 1 1 1 2 2 2 2 2 2 3 3 3 3 4 5 6 6 7 6 6 5 6 6 6 5 4 4 3 3 3 3 3 4 4 4 4 4 3 2 2 2 2 2
0 0 0 0 0 0 1 1 1 1 2 2 2 2 2 2 2 2 2 2 3 4 5 6 6 7 8 9 9 7 5 4 4 4 3 3 3 3 4 5 5 5 4 3 2 2 2 2 2
0 0 0 0 0 0 1 1 1 1 2 2 2 3 2 2 2 2 2 2 3 4 4 4 5 8 11 12 10 7 5 4 4 4 3 3 3 3 4 5 5 5 3 3 2 2 2 2 3
0 0 0 0 0 1 1 1 1 1 1 1 2 2 2 2 2 2 2 3 4 4 4 4 4 7 11 11 9 6 5 5 4 4 4 3 3 4 4 4 4 4 3 3 2 2 2 3 3
0 0 0 0 0 1 1 1 1 1 1 1 2 2 2 2 3 4 4 4 4 4 4 3 3 5 7 7 6 5 5 5 4 4 4 4 4 5 5 4 4 4 3 3 3 3 3 3 3
0 0 0 0 1 1 1 1 1 1 1 1 1 1 2 2 3 4 6 6 5 4 4 3 3 4 4 4 4 4 5 5 5 4 4 4 5 5 5 4 4 3 3 3 3 3 3 3 3
0 0 0 0 1 1 1 1 1 1 1 1 1 1 2 3 3 5 6 6 5 4 3 3 3 3 3 3 4 4 5 5 5 5 5 5 5 5 5 4 3 3 3 3 3 3 3 3 3
0 0 0 0 0 1 1 1 1 1 1 1 2 2 3 4 5 7 8 7 6 4 3 3 3 3 3 3 4 5 5 5 5 6 6 6 5 4 3 3 3 3 3 3 3 3 4 4 4
0 0 0 0 0 0 1 1 1 1 1 2 3 5 6 7 8 9 9 8 6 4 3 3 3 3 3 3 4 5 5 5 5 6 7 6 5 4 3 3 3 4 4 4 4 4 4 4 4
0 0 0 0 0 0 1 1 1 1 2 3 5 6 7 8 9 9 8 7 5 4 3 3 3 3 3 4 4 4 5 4 5 6 6 6 5 4 4 4 4 4 4 4 4 4 4 4 4
0 0 0 0 0 0 1 1 1 1 2 4 5 6 6 6 6 6 5 5 4 3 3 2 2 2 3 4 5 5 4 4 4 5 5 5 5 5 5 4 4 4 4 4 4 4 3 3 3
0 0 0 0 0 0 0 0 1 1 2 3 4 5 4 3 3 3 3 3 3 3 3 3 2 2 3 4 6 6 5 5 5 5 6 6 6 6 6 5 5 4 4 4 4 4 3 3 3
0 0 0 0 0 0 0 0 0 1 1 2 2 3 3 2 2 2 2 2 3 3 3 3 3 3 4 5 6 7 8 8 8 8 7 7 7 7 7 7 6 6 6 6 6 5 4 4 4
0 0 0 0 0 0 0 0 0 1 1 1 1 2 2 2 2 2 2 2 3 3 4 3 3 3 4 5 5 7 11 14 13 11 9 7 6 6 7 7 8 8 8 8 8 7 5 5 5
0 0 0 0 0 0 0 0 0 0 0 1 1 2 2 2 3 3 2 2 3 3 3 3 3 3 4 5 4 7 13 17 17 14 11 8 6 4 6 8 9 9 9 9 8 7 6 6 6

GEFSSGP_con_maxscp_228.txt.gz
SCP
0 0 0 1 1 0 0 0 0 0 0 0 0 0 0 0 1 1 2 3 4 6 6 6 5 5 4 3 3 2 2 2 2 2 2 1 1 1 2 2 2 1 1 2 3 3 3 3 3
0 0 0 1 0 0 0 0 0 0 0 0 0 0 0 1 1 1 2 4 5 6 7 6 6 5 5 4 3 3 2 2 2 2 2 1 1 1 1 1 1 1 1 2 2 2 2 3 3
0 0 0 0 0 0 0 0 0 0 0 0 1 1 1 1 2 2 3 4 5 7 7 7 7 6 5 4 4 3 3 2 2 2 2 2 2 2 1 1 1 1 1 1 1 1 2 2 2
0 0 0 0 0 0 0 1 1 0 0 1 1 2 2 2 2 3 3 3 5 6 6 7 7 7 6 5 4 3 3 3 2 2 2 2 3 2 2 1 1 1 1 1 1 1 1 2 2
0 0 0 0 0 0 1 1 1 1 1 1 2 2 3 4 4 3 3 4 5 6 6 7 7 7 6 5 4 3 3 3 3 2 3 3 3 3 2 1 1 1 1 1 1 1 1 2 2
0 0 0 0 0 0 1 1 1 1 2 2 2 3 5 6 5 4 4 4 5 6 7 8 7 6 5 5 4 4 3 3 3 3 3 3 3 2 2 2 2 2 1 1 1 1 1 1 1
0 0 0 0 0 0 1 1 1 2 3 2 2 3 5 6 6 5 4 4 6 8 9 9 7 6 5 4 4 3 3 3 3 3 3 3 3 2 2 2 2 2 1 1 1 1 1 1 1
0 0 0 0 0 1 1 1 2 3 3 3 3 4 5 6 6 5 5 5 7 10 11 9 7 6 5 4 4 3 3 3 3 3 3 3 3 3 2 2 2 2 1 1 1 1 1 1 1
0 0 0 0 0 1 1 2 3 3 2 2 3 5 5 5 5 6 7 7 8 10 10 9 8 6 5 4 4 4 3 3 3 3 3 3 3 3 2 2 2 2 1 1 1 1 2 1 1
0 0 0 0 0 1 1 2 2 2 2 2 2 4 4 4 4 6 8 9 9 9 9 9 9 8 5 4 4 4 4 3 3 4 4 3 3 3 2 2 2 2 2 1 1 2 2 1 1
0 0 0 0 1 1 2 2 2 1 1 1 2 2 3 3 4 7 10 12 12 11 9 9 9 9 8 6 5 5 5 4 4 5 4 4 3 3 3 2 2 2 2 2 2 2 1 1 1
0 0 0 1 1 2 2 2 2 2 2 2 2 2 3 4 6 9 11 11 11 11 9 9 9 9 9 8 6 5 5 6 7 7 6 5 5 4 3 3 3 3 3 2 2 2 1 1 1
0 0 0 1 2 2 2 2 3 3 2 2 2 2 3 6 9 10 9 8 8 8 7 7 8 8 8 7 6 6 6 7 8 8 6 6 6 5 4 3 3 3 3 3 3 2 2 1 1
0 0 0 1 2 2 2 2 3 2 2 2 2 3 5 8 10 10 7 5 5 5 5 5 6 8 8 7 6 6 6 7 8 7 6 5 4 4 4 3 3 3 3 3 3 3 2 2 2
0 0 0 1 1 2 1 2 2 1 2 2 3 4 6 9 10 8 7 6 6 6 6 5 6 8 9 8 6 5 6 7 7 6 5 4 4 4 5 4 3 3 3 4 4 3 3 2 2
0 0 0 0 1 1 1 1 2 2 2 3 4 5 6 7 8 7 7 8 9 10 9 7 6 8 9 9 8 6 6 6 6 5 5 4 4 5 5 4 3 3 3 4 5 5 4 3 3
0 0 0 0 0 1 1 1 2 2 2 3 5 5 5 5 6 6 7 10 14 15 13 9 7 8 9 10 9 7 6 6 6 6 6 5 5 5 5 4 4 4 4 5 6 7 6 4 3
0 0 0 0 0 0 1 1 2 2 2 3 4 5 5 5 5 5 7 12 19 21 18 12 9 8 9 10 9 7 6 5 5 6 6 6 6 6 6 5 4 4 5 6 7 8 6 4 3
0 0 0 0 0 0 1 1 1 2 3 3 4 5 5 4 4 5 7 14 22 25 22 16 11 10 9 9 7 6 6 5 5 6 7 7 7 6 5 5 4 4 5 6 6 6 5 3 3
0 0 0 0 0 0 1 1 2 3 3 3 4 5 4 4 5 6 8 15 22 25 21 15 12 11 10 8 7 6 6 5 6 6 7 8 7 6 5 5 5 5 5 6 5 5 4 3 3
0 0 0 0 0 0 1 2 2 3 3 3 4 4 4 4 5 6 9 13 18 19 16 12 10 10 9 8 6 6 6 6 6 7 8 7 6 6 5 5 5 6 6 6 6 5 4 4 4
0 0 0 0 0 0 1 2 2 3 3 3 3 4 4 5 6 7 8 11 14 14 11 9 9 8 7 6 6 6 6 6 6 7 8 7 6 6 5 5 5 6 6 6 6 6 5 5 5
0 0 0 0 0 0 1 1 2 3 4 4 3 4 5 6 6 7 8 10 11 10 8 8 8 7 6 5 5 5 5 5 7 8 7 7 6 6 5 5 5 6 6 6 5 6 6 6 5
0 0 0 0 0 0 0 1 1 2 4 5 5 5 7 8 7 7 8 10 10 9 8 7 7 6 5 4 3 3 4 5 7 7 7 6 6 6 6 6 5 5 5 5 5 6 6 6 5
0 0 0 0 0 0 0 1 1 1 2 4 5 5 7 8 8 7 8 9 9 8 7 7 7 6 5 4 3 3 4 5 7 6 6 6 7 8 8 8 7 6 5 5 6 6 5 5 5
0 0 0 0 0 0 0 1 1 1 1 2 3 3 4 5 6 7 8 8 9 8 7 7 6 5 5 4 4 4 4 5 6 5 5 6 7 9 10 10 9 7 6 6 6 6 5 5 5
0 0 0 0 0 0 0 1 1 1 1 1 1 1 2 3 4 6 7 8 7 8 7 6 5 5 4 5 5 4 4 4 4 4 4 5 7 9 12 12 10 8 6 6 6 6 5 5 5
0 0 0 0 0 0 1 0 1 2 2 1 1 1 2 3 3 4 6 6 6 7 6 5 4 4 4 6 6 5 4 4 4 3 4 5 6 9 11 13 11 9 7 6 6 6 6 6 6
0 0 0 1 1 0 0 1 1 2 2 1 1 1 2 3 3 3 4 4 4 5 5 4 3 3 5 7 8 6 4 4 4 4 4 5 6 9 11 12 11 9 7 7 7 7 7 6 6
0 0 0 1 1 0 0 1 2 2 2 1 1 1 1 2 3 3 4 4 4 4 4 4 3 3 5 8 10 7 5 4 4 5 5 5 7 9 11 12 10 8 7 7 7 7 7 7 7

GEFSSGP_con_maxscp_234.txt.gz
SCP
0 0 0 0 0 0 0 0 0 1 1 1 2 2 2 1 1 1 1 1 2 3 5 6 5 5 5 5 5 4 3 3 2 2 2 2 2 2 2 2 2 2 2 1 1 1 2 2 1
0 0 0 0 0 0 0 0 1 1 1 1 2 2 2 2 2 1 2 2 3 4 5 7 7 6 5 5 5 4 4 3 2 2 2 2 2 2 2 2 2 2 2 1 1 1 1 1 1
0 0 0 0 0 0 0 0 1 2 2 2 2 2 2 2 2 2 3 3 4 4 5 7 8 8 6 6 5 5 4 3 2 2 2 2 2 2 2 2 2 2 2 1 1 1 1 1 1
0 0 0 0 0 0 0 1 1 2 2 2 2 2 2 3 3 4 5 6 6 5 5 7 9 8 7 6 5 5 4 3 2 2 2 2 2 2 2 2 2 2 2 1 1 1 1 1 1
0 0 0 0 0 1 1 1 1 1 1 1 2 2 3 3 4 5 7 8 7 6 6 7 8 8 7 6 5 5 4 3 3 2 2 2 2 2 2 2 2 2 2 2 1 1 1 1 1
0 0 0 0 1 1 1 1 1 1 1 1 2 2 3 4 5 6 7 7 7 6 6 6 7 7 7 6 5 5 4 4 3 3 2 2 2 2 2 2 2 2 2 2 1 1 1 1 1
0 0 0 0 0 1 1 1 1 1 1 2 2 3 4 5 6 6 6 6 6 5 6 7 7 6 6 6 6 5 5 4 4 3 2 2 2 2 2 2 2 2 2 1 1 1 2 2 1
0 0 0 0 0 1 1 1 1 1 1 2 2 3 4 5 6 7 7 7 6 5 6 6 6 5 5 6 6 5 5 4 4 4 3 2 2 2 2 2 2 2 1 1 1 2 2 2 1
0 0 0 0 0 0 1 1 1 1 2 2 3 4 5 5 7 9 9 8 6 5 6 6 5 4 4 4 5 5 5 4 4 4 3 3 2 2 2 2 2 2 1 1 2 2 2 2 1
0 0 0 0 0 0 1 1 1 1 1 3 4 5 5 6 6 7 8 7 5 4 5 5 5 4 4 3 4 4 4 4 4 3 3 2 2 2 2 2 2 2 1 1 2 2 2 2 2
0 0 0 0 0 0 1 1 1 1 1 2 4 5 6 6 6 6 5 5 4 3 4 5 5 5 4 3 4 4 4 4 4 3 3 2 2 3 3 3 2 2 1 1 2 3 3 2 2
0 0 0 0 0 0 1 1 1 1 1 2 5 7 8 8 6 5 4 4 3 3 4 7 7 6 4 4 4 4 5 5 4 3 3 3 2 3 3 3 2 2 2 2 2 3 3 2 2
0 0 0 0 0 0 1 1 1 2 3 6 9 12 11 9 7 5 4 3 3 3 5 8 9 7 5 4 4 4 5 5 4 3 3 2 2 3 3 2 2 2 2 2 3 3 3 2 2
0 0 0 0 0 0 1 1 1 3 6 10 14 14 12 9 6 5 4 4 3 4 5 7 9 8 6 4 4 4 5 5 4 3 3 2 2 2 2 2 1 1 1 1 2 2 3 2 2
0 0 0 0 0 0 1 1 2 4 7 11 13 13 10 8 5 4 4 4 4 4 4 6 8 9 6 4 4 4 4 4 3 2 2 2 2 2 2 2 1 1 1 1 1 1 2 2 2
0 0 0 0 0 1 1 1 2 3 5 8 9 9 8 6 4 4 4 5 5 5 5 6 8 8 6 4 4 4 4 3 2 2 2 2 2 2 2 2 2 2 1 1 1 1 1 1 1
0 0 0 0 0 1 1 1 1 2 3 4 6 7 7 6 5 5 5 5 5 6 6 6 7 7 5 4 3 3 3 3 3 3 2 2 2 2 2 2 2 3 2 2 2 2 1 1 1
0 0 0 0 0 0 1 1 1 2 2 3 4 5 7 7 6 6 5 5 6 7 7 7 7 6 4 4 3 3 3 4 4 3 2 2 3 3 3 3 3 3 3 2 2 2 1 1 1
0 0 0 0 0 0 1 1 1 1 1 2 3 5 7 7 6 6 6 6 7 8 8 7 6 5 4 3 3 3 3 3 3 3 2 2 3 3 3 3 3 3 3 3 2 2 1 1 1
0 0 0 0 0 0 0 1 1 1 1 2 3 5 6 6 5 6 6 6 8 10 9 8 6 4 4 4 4 3 3 3 3 3 2 2 2 2 3 3 3 4 4 3 2 1 1 1 1
0 0 0 0 0 0 0 0 1 1 2 2 3 4 5 5 5 5 6 7 9 11 10 8 5 4 4 4 4 4 4 3 3 3 2 2 2 2 2 2 3 4 4 3 2 1 1 1 1
0 0 0 0 0 0 0 0 0 1 1 2 2 3 4 5 5 5 6 8 10 10 9 6 5 4 4 4 4 4 4 3 3 2 2 1 1 1 2 2 3 4 4 3 2 2 1 1 1
0 0 0 0 0 0 0 0 0 1 1 1 2 3 4 5 5 5 5 7 9 8 6 5 4 3 3 4 4 4 4 3 2 2 1 1 1 1 1 2 3 3 3 3 3 2 2 2 1
0 0 0 0 0 0 0 0 0 0 1 1 1 3 5 6 5 4 5 6 6 5 4 3 3 2 2 2 3 4 4 3 2 1 1 1 1 1 2 2 3 3 3 3 3 3 3 2 2
0 0 0 0 0 0 0 0 0 0 0 1 1 2 4 5 4 3 4 5 5 4 3 2 2 2 1 1 2 2 3 2 1 1 1 1 1 1 2 2 3 3 4 3 3 3 3 3 2
0 0 0 0 0 0 0 0 0 0 0 1 1 1 2 3 3 2 3 4 4 3 3 2 2 2 1 1 2 2 3 2 1 1 1 1 1 1 1 2 3 3 4 4 4 4 3 3 3
0 0 0 0 0 0 0 0 0 0 0 1 1 1 1 2 2 2 2 3 4 4 3 2 2 2 2 2 3 3 3 2 1 1 1 1 1 1 1 1 2 3 4 4 5 5 4 4 3
0 0 0 0 0 0 0 0 0 0 1 1 1 1 1 1 2 2 2 2 3 3 3 2 1 2 2 2 3 3 2 1 1 1 1 1 1 1 1 1 2 2 3 5 6 6 6 5 4
0 0 0 0 0 0 0 0 0 0 0 1 1 1 1 1 1 1 1 1 1 2 1 1 1 1 1 2 2 2 1 1 1 1 1 1 1 1 1 1 1 2 3 5 6 7 7 6 6
0 0 0 0 0 0 0 0 0 0 0 1 1 2 2 1 1 1 1 1 1 1 0 0 0 1 1 1 1 1 1 1 0 1 1 1 1 1 1 1 1 2 3 4 6 8 8 8 7

GEFSSGP_con_maxscp_240.txt.gz
SCP
0 0 0 0 0 0 0 0 0 0 0 1 1 1 1 2 1 1 1 2 3 4 5 6 6 6 5 5 5 5 5 5 5 4 4 3 3 3 3 3 3 3 2 2 2 2 2 2 2
0 0 0 0 0 0 0 0 0 0 0 1 1 1 1 2 1 1 1 2 4 5 6 6 6 6 6 6 6 6 6 5 5 4 4 3 3 3 3 3 3 3 2 2 2 2 2 2 2
0 0 0 0 0 0 0 0 0 0 1 1 1 1 2 2 1 1 1 2 4 6 6 6 6 7 7 6 6 6 6 6 5 5 4 4 4 3 4 3 3 3 2 2 2 2 2 2 2
0 0 0 0 0 0 0 0 0 1 1 1 2 2 2 2 2 1 2 3 6 6 6 6 6 7 6 6 6 6 6 5 5 5 5 5 4 4 4 3 3 2 2 2 3 2 2 2 2
0 0 0 0 0 0 0 0 1 1 1 1 2 2 2 2 2 2 3 5 6 7 6 5 6 6 6 6 5 6 6 5 5 4 4 5 5 4 4 3 3 2 2 2 3 3 2 2 2
0 0 0 0 0 0 0 0 1 1 1 1 1 2 2 3 2 3 3 5 6 6 6 5 5 5 5 5 5 5 5 5 5 4 4 4 4 4 4 3 3 3 2 2 3 3 3 3 2
0 0 0 0 0 0 0 0 0 1 1 1 1 2 3 4 4 4 4 4 5 6 6 5 4 4 4 5 5 4 4 4 4 4 4 4 4 4 3 3 3 3 3 3 3 3 3 3 3
0 0 0 0 0 0 0 0 0 1 1 1 1 2 4 5 5 5 5 5 5 5 5 4 4 4 4 4 3 3 3 4 3 3 4 4 4 4 3 3 3 3 3 3 3 3 3 3 3
0 0 0 0 0 0 0 0 0 1 1 1 2 3 5 7 7 6 6 5 4 3 3 4 4 4 4 4 3 3 3 3 3 3 3 4 4 3 3 3 3 4 3 2 2 2 2 2 2
0 0 0 0 0 0 0 0 1 1 1 1 2 5 8 9 8 7 6 5 3 2 3 4 4 5 5 4 4 3 3 3 3 3 3 3 3 3 3 3 3 4 3 2 2 2 2 2 2
0 0 0 0 0 0 0 1 1 1 1 2 3 7 9 9 8 6 5 3 2 2 2 3 4 5 5 5 4 4 3 3 3 3 3 2 2 3 2 2 2 3 2 2 2 2 2 2 2
0 0 0 0 0 0 1 1 1 2 2 3 5 7 8 7 6 4 3 2 2 2 2 2 4 5 6 6 5 5 4 3 3 3 3 2 2 3 2 2 2 2 2 2 2 2 2 2 2
0 0 0 0 0 1 1 1 1 2 3 4 5 5 5 5 3 2 2 2 2 2 1 2 3 5 6 6 6 5 4 4 4 3 3 3 3 2 2 2 2 2 2 2 2 2 2 2 2
0 0 0 0 1 1 1 1 1 2 2 3 3 3 3 3 2 2 2 2 2 1 1 1 2 4 6 7 6 6 5 4 4 4 4 3 3 2 2 2 2 1 1 2 2 2 2 1 1
0 0 0 0 0 0 1 1 1 1 2 2 2 2 2 2 2 2 2 2 2 2 1 1 2 3 6 7 6 6 5 5 4 4 4 3 3 2 2 2 2 1 1 1 2 2 2 1 1
0 0 0 0 0 0 0 1 1 1 2 2 2 2 1 1 2 3 3 2 2 2 2 2 2 3 5 6 6 6 5 4 4 4 3 3 3 2 2 1 1 2 2 1 1 2 2 1 1
0 0 0 0 0 0 0 1 1 1 1 1 1 1 1 2 3 3 3 2 2 2 3 3 2 2 4 6 6 6 5 4 4 3 3 3 3 2 2 1 1 2 2 2 2 2 1 1 1
0 0 0 0 0 0 0 1 1 1 1 2 2 1 1 2 3 3 3 2 2 3 3 3 3 3 4 6 6 6 5 4 3 3 3 2 2 2 2 1 1 2 2 2 2 2 1 1 1
0 0 0 0 0 0 0 0 1 1 1 2 2 1 2 3 3 3 2 1 2 3 3 3 3 3 4 5 6 5 4 3 3 2 2 2 2 2 2 2 2 2 2 2 2 2 2 1 1
0 0 0 0 0 0 0 0 1 1 1 1 1 1 2 4 5 5 3 1 1 2 2 2 2 3 5 5 5 5 4 3 2 2 2 2 2 2 1 2 2 2 2 2 2 2 2 2 2
0 0 0 0 0 0 0 0 0 1 1 1 1 2 3 4 5 6 4 2 1 1 1 2 2 3 5 5 4 4 4 3 3 2 2 2 2 2 1 1 1 2 2 2 2 2 2 3 3
0 0 0 0 0 0 0 0 0 0 1 1 2 2 3 3 4 5 3 2 1 1 1 1 2 3 4 5 4 4 3 3 3 2 2 2 2 2 1 1 1 1 2 3 3 2 2 3 3
0 0 0 0 0 0 0 0 0 0 1 1 2 2 2 2 3 3 2 1 1 1 1 1 1 2 4 4 4 3 3 3 2 2 1 1 1 1 1 1 1 1 2 3 3 2 2 2 2
0 0 0 0 0 0 0 0 0 0 1 1 1 1 2 2 2 2 2 1 1 1 1 1 1 1 2 3 3 2 2 2 2 1 1 1 1 1 1 1 1 1 2 3 3 2 2 2 2
0 0 0 0 0 0 0 0 0 0 0 1 1 1 1 1 2 1 1 1 1 1 1 1 1 1 1 1 1 1 2 2 2 1 1 1 1 1 0 0 0 1 1 2 2 2 2 2 2
0 0 0 0 0 0 0 0 0 0 0 0 1 1 1 1 1 1 1 1 1 1 1 1 1 1 1 0 0 0 1 1 1 1 1 1 1 1 1 1 0 0 1 2 2 2 2 2 2
0 0 0 0 0 0 0 0 0 0 0 0 1 1 1 1 1 1 1 1 1 1 1 1 1 1 0 0 0 0 0 1 1 1 1 1 1 1 1 1 1 1 1 1 2 2 2 2 2
0 0 0 0 0 0 0 0 0 0 0 0 1 1 1 1 1 1 1 1 1 1 1 1 1 0 0 0 0 0 0 0 1 1 1 1 1 1 1 1 1 1 1 1 1 2 2 2 2
0 0 0 0 0 0 0 0 0 0 0 0 1 1 1 1 1 1 1 0 0 0 0 0 0 0 0 0 0 0 0 0 1 1 1 1 1 1 1 1 0 0 0 1 1 1 1 1 1
0 0 0 0 0 0 0 0 0 0 0 0 1 1 1 1 1 1 0 0 0 0 0 0 0 0 0 0 0 0 0 0 1 1 1 1 1 0 0 0 0 0 0 0 1 1 1 1 1

GEFSSGP_con_maxscp_246.txt.gz
SCP
0 0 0 0 0 0 0 0 0 0 1 1 1 1 1 2 2 1 1 1 1 2 4 5 6 6 5 5 4 5 4 4 4 4 3 2 2 2 2 2 2 2 2 2 2 1 1 1 1
0 0 0 0 0 0 0 0 0 1 1 1 1 1 2 2 1 1 1 1 1 3 4 5 6 6 5 4 4 4 4 4 4 4 3 3 2 2 2 3 2 2 2 2 2 2 1 1 1
0 0 0 0 0 0 0 0 1 1 1 1 1 1 2 1 1 1 1 1 2 3 4 5 5 5 5 4 4 4 4 4 4 4 4 4 3 3 3 3 3 3 2 2 2 2 2 2 2
0 0 0 0 0 0 0 0 1 1 1 1 1 1 1 1 1 1 1 1 2 2 3 4 5 5 5 4 4 4 4 4 4 5 5 5 5 4 3 3 3 3 3 2 2 2 2 2 2
0 0 0 0 0 0 0 0 0 1 1 1 1 1 1 1 2 2 2 3 3 3 3 4 5 5 5 4 4 4 4 4 4 5 6 6 6 5 4 3 3 3 3 3 3 3 2 2 2
0 0 0 0 0 0 0 0 0 0 1 1 1 1 1 2 3 4 4 4 4 3 3 4 5 5 5 5 4 4 4 4 4 5 5 6 5 5 4 3 3 3 3 3 3 3 3 3 2
0 0 0 0 0 0 0 0 0 1 1 1 1 1 2 3 4 5 4 4 3 3 3 3 4 4 4 5 5 4 4 4 4 4 4 4 4 3 3 3 3 3 3 3 3 3 3 3 2
0 0 0 0 0 0 0 0 1 1 1 1 1 2 3 4 4 4 4 3 3 2 2 3 3 4 4 4 4 4 4 3 3 3 3 3 3 2 2 3 3 3 3 2 2 3 3 3 3
0 0 0 0 0 0 0 0 1 1 1 2 2 3 4 4 4 4 4 4 4 3 3 3 3 4 4 4 4 4 3 3 3 3 2 2 2 2 2 2 2 2 2 2 2 2 2 3 3
0 0 0 0 0 0 0 1 1 1 2 2 3 3 4 4 4 4 4 5 4 3 3 3 3 3 4 4 4 4 3 3 3 2 2 2 2 2 2 2 2 2 2 2 2 2 2 2 2
0 0 0 0 0 0 0 1 1 2 2 3 3 3 3 4 4 4 4 4 4 4 3 3 3 3 4 4 4 4 4 3 3 3 3 3 3 2 2 3 3 2 2 2 2 2 2 2 2
0 0 0 0 0 0 1 1 1 2 2 3 3 3 3 3 3 3 2 3 3 3 3 3 3 3 3 4 4 4 4 4 4 4 4 4 4 3 3 3 3 3 3 3 2 3 3 2 2
0 0 0 0 0 1 1 1 2 2 2 2 3 3 3 2 2 2 2 2 2 2 3 3 3 3 3 3 4 4 5 5 5 5 4 4 5 5 4 4 3 4 4 3 3 3 3 2 2
0 0 0 0 0 1 1 1 2 2 2 2 2 2 2 2 2 2 2 2 2 2 2 2 2 2 2 3 4 5 5 6 6 5 5 5 5 5 5 4 3 3 3 3 3 3 3 2 2
0 0 0 0 0 1 1 1 1 1 1 2 2 3 3 2 2 2 2 1 2 2 2 2 2 2 2 3 4 4 5 5 6 6 5 5 5 5 6 5 4 3 3 3 3 3 3 2 2
0 0 0 0 0 1 1 1 1 1 1 2 3 3 3 2 2 2 2 2 2 2 2 2 2 2 2 3 3 4 5 5 6 6 6 5 4 5 5 5 4 3 3 3 3 3 2 2 2
0 0 0 0 0 0 0 0 0 1 1 2 3 3 3 3 2 2 2 2 2 2 2 3 3 3 3 3 3 4 4 5 5 6 6 5 4 5 5 5 4 3 3 3 3 3 3 2 2
0 0 0 0 0 0 0 0 0 1 1 2 3 4 3 3 2 2 2 2 1 2 2 3 4 5 4 3 3 4 4 5 5 5 5 5 5 4 5 4 4 3 3 3 2 2 3 3 3
0 0 0 0 0 0 1 1 1 1 2 2 3 4 3 2 2 2 2 2 2 2 3 4 5 5 3 3 3 3 4 5 5 5 5 5 5 5 4 4 4 3 3 3 2 2 3 3 4
0 0 0 0 0 1 1 1 1 1 2 3 3 4 3 2 2 2 2 2 2 2 3 4 4 4 4 3 3 3 4 4 4 5 5 5 5 4 4 4 4 4 3 3 2 2 3 3 4
0 0 0 0 0 1 1 1 1 2 2 3 3 3 3 2 2 1 1 1 2 2 2 2 3 4 4 3 3 3 3 3 4 4 4 4 4 4 4 4 4 4 3 3 2 2 3 3 4
0 0 0 0 0 0 0 1 1 2 2 2 2 2 2 2 1 1 1 1 2 2 2 1 2 3 3 3 3 3 3 3 4 4 4 4 4 4 4 4 4 3 3 2 2 2 3 3 4
0 0 0 0 0 0 0 1 1 2 2 2 2 2 2 2 2 2 2 2 2 2 1 1 2 2 2 2 2 3 3 3 4 4 4 4 3 3 3 3 3 3 2 2 2 3 3 3 4
0 0 0 0 0 0 0 1 2 2 2 2 1 1 1 2 3 3 3 3 3 2 2 2 2 2 2 2 2 3 3 3 4 4 4 4 3 3 3 2 2 2 2 2 2 2 2 3 3
0 0 0 0 0 0 0 1 2 2 2 1 1 1 2 3 4 4 4 4 4 3 2 2 2 2 2 2 2 2 3 3 3 4 4 3 3 3 2 2 2 2 2 2 2 2 2 2 2
0 0 0 0 0 0 1 1 2 2 1 1 1 1 2 3 5 5 5 4 4 3 3 3 3 3 2 2 2 2 3 3 3 4 4 3 3 3 2 2 2 2 2 2 2 1 2 2 2
0 0 0 0 0 0 1 1 1 1 1 1 1 1 2 4 5 5 4 4 3 3 3 3 3 3 2 2 1 2 3 4 4 4 4 4 3 3 2 2 2 2 2 2 2 1 2 2 2
0 0 0 0 0 0 0 1 1 1 1 1 2 2 2 4 6 6 4 3 3 3 3 2 2 2 2 2 1 1 2 4 5 5 4 4 4 3 2 2 2 3 2 2 2 2 2 2 2
0 0 0 0 0 0 0 1 1 1 1 2 2 2 3 4 6 6 5 4 3 3 2 2 2 2 2 1 1 1 2 4 5 5 4 4 4 3 2 3 3 3 3 3 2 2 2 2 2
0 0 0 0 0 0 0 1 1 1 1 2 2 3 3 4 5 5 4 3 3 2 2 2 2 2 1 1 1 1 2 3 4 5 4 4 3 3 3 3 3 3 3 3 2 2 2 2 2